Wind_Speed
23 23 22 21 20 19 17 16 15 15 14 14 13 12 11 11 9 7 5 5 4 4 5 6 8 9 10 10 10 11 12 13 13 12 13 14 14 15 16 16 16 15 14 14 13 12 12 11 11 11 10 9 8 7 7 7 7 7 7 7 8 6 6 6 7 5 4 6 7 7 9 9 11 13 14 15 16 17 18 19 20 20 23 23 21 22 24 25
23 23 22 21 20 19 18 17 16 15 15 14 13 12 11 10 8 7 6 6 5 6 7 8 9 10 11 11 11 11 11 12 12 12 12 12 13 14 15 15 14 13 12 11 11 10 10 10 10 10 8 7 6 6 6 7 7 7 7 7 7 6 7 8 8 7 6 7 9 10 11 11 12 14 16 17 18 19 20 21 22 23 24 25 24 23 25 27
24 23 22 21 20 19 18 17 16 16 15 14 13 12 11 10 9 8 7 7 7 8 9 10 11 12 12 12 11 11 12 11 11 10 10 11 11 11 11 11 10 8 7 7 8 8 9 9 9 8 6 5 5 6 6 6 6 6 6 6 7 7 8 10 10 10 9 10 11 13 14 14 14 16 18 20 20 22 23 23 24 25 26 28 28 26 26 28
24 23 22 21 19 19 18 18 17 16 15 13 12 12 11 10 9 8 8 8 9 10 11 11 12 12 12 12 11 11 10 9 8 7 7 8 8 7 6 5 4 4 5 6 7 8 8 8 7 5 4 4 5 6 6 6 6 7 7 7 8 9 10 12 12 12 12 12 13 15 16 17 17 17 20 22 23 25 25 25 27 28 29 30 30 30 29 29
24 23 22 21 20 19 19 18 18 16 15 14 13 12 11 10 9 8 9 9 10 11 11 11 11 11 11 11 10 9 8 6 6 6 5 5 4 4 3 3 3 4 4 5 6 6 6 5 4 3 4 4 4 5 6 6 7 8 9 9 10 11 12 13 14 14 15 15 15 16 18 20 20 21 22 23 25 28 27 26 28 29 31 32 32 32 32 31
23 23 23 22 22 20 20 19 18 17 16 15 14 13 11 10 10 10 11 11 12 11 10 10 10 10 9 8 7 5 5 4 4 4 3 2 2 2 2 2 2 2 3 3 4 4 3 3 3 3 3 4 4 6 7 8 8 9 10 11 12 13 14 15 16 17 18 19 19 19 21 22 23 24 25 26 27 29 28 28 29 30 32 34 34 34 34 34
21 22 23 23 23 22 21 20 19 18 17 16 14 13 12 11 11 12 12 12 11 10 9 9 8 7 6 5 5 4 4 4 3 3 2 1 0 0 0 0 0 0 1 2 2 2 2 1 2 2 3 4 6 7 8 9 10 10 12 13 13 14 15 17 18 19 20 21 22 22 23 25 26 26 27 30 30 30 29 30 31 31 32 34 35 36 36 35
16 19 20 20 21 21 21 21 20 19 17 16 15 14 13 12 12 12 11 10 9 8 7 6 6 5 5 5 4 4 4 4 3 3 2 2 2 2 2 2 2 2 1 1 1 0 0 1 2 3 5 6 7 9 9 10 11 12 13 14 15 16 17 18 19 21 22 23 24 25 26 27 28 27 28 32 31 30 31 32 35 35 33 33 35 36 37 37
13 15 16 17 17 18 18 19 19 18 17 16 15 14 14 13 12 10 8 7 6 6 6 6 6 6 5 5 5 4 4 4 3 3 3 3 3 3 3 4 4 3 3 2 2 2 2 4 5 6 8 8 9 10 11 12 13 14 15 16 17 18 19 20 21 22 23 25 26 27 27 29 31 30 30 33 33 32 34 35 36 37 35 35 35 36 38 38
14 13 13 14 14 15 15 16 16 16 16 15 14 13 12 11 9 7 6 7 7 8 8 7 7 7 7 6 5 5 4 4 4 5 5 5 5 5 6 6 5 5 5 4 4 6 6 7 8 8 9 10 11 12 13 14 15 16 17 18 18 19 20 21 22 24 25 27 28 29 28 30 34 33 31 34 35 35 36 37 37 37 37 37 37 37 38 39
16 15 14 14 14 14 14 14 14 14 14 13 13 11 10 9 8 9 10 10 10 10 9 9 9 9 8 7 6 5 5 6 6 6 6 7 7 7 8 7 7 7 7 7 8 9 9 10 11 11 11 12 13 13 15 16 17 17 18 19 20 20 22 23 24 26 28 29 31 30 28 29 35 36 34 35 37 38 38 37 38 38 38 38 38 39 39 40
18 17 16 16 15 15 14 14 14 13 13 12 12 11 11 12 13 13 13 13 12 12 12 11 10 9 8 8 8 8 8 9 9 9 9 9 9 9 9 9 9 9 9 10 10 11 11 12 12 12 12 13 14 15 16 17 18 19 19 20 21 22 24 26 27 28 29 31 33 34 30 28 33 38 37 38 38 40 40 39 39 39 38 39 39 39 40 41
18 18 18 17 16 16 15 15 15 14 14 14 14 15 15 17 17 16 16 15 15 14 13 13 12 11 10 11 11 11 12 12 12 11 11 11 11 10 10 10 10 10 10 10 11 12 12 13 13 14 14 15 16 17 17 18 19 20 21 22 23 23 25 27 29 30 30 32 33 37 34 28 30 37 39 40 40 42 43 42 41 40 39 39 39 40 42 42
19 18 18 18 17 16 16 16 16 16 16 17 18 19 19 20 19 19 18 18 17 16 16 15 15 15 14 15 15 15 14 14 13 13 12 11 11 11 11 11 11 11 11 11 11 12 13 13 14 15 15 16 17 18 19 20 21 22 23 25 25 25 26 28 30 31 32 33 33 37 37 31 30 34 38 40 41 42 43 43 43 42 41 41 40 40 42 44
21 21 20 21 20 19 19 18 19 19 20 22 22 22 22 22 21 21 20 20 19 19 18 18 18 17 17 17 16 16 15 14 13 13 13 12 12 11 11 11 11 11 11 11 12 13 14 14 15 16 16 17 18 19 21 22 23 24 25 26 27 27 28 29 31 32 33 34 35 37 39 36 33 32 34 39 42 44 44 43 42 42 42 42 41 40 41 43
25 27 27 27 26 25 24 24 25 25 26 26 26 25 25 24 23 23 22 22 21 20 20 19 19 18 17 17 16 16 15 14 13 13 12 12 12 12 11 11 11 12 12 13 13 13 14 15 16 17 18 19 20 21 23 24 25 26 26 27 29 30 30 31 33 34 35 37 38 38 40 39 36 32 32 36 40 43 44 42 42 42 42 42 42 41 41 42
35 37 38 37 35 34 33 33 32 32 31 30 29 28 27 26 25 25 24 23 22 21 20 19 19 18 17 16 16 15 14 14 13 13 12 12 12 11 11 12 12 12 12 13 13 13 14 15 17 18 19 20 21 22 24 25 26 27 28 29 31 32 33 35 36 37 38 39 40 40 42 41 39 36 35 36 38 39 41 42 43 43 43 43 43 42 42 42
43 44 44 43 42 40 39 37 36 35 34 32 31 30 29 28 27 26 25 24 23 22 21 20 19 18 17 16 15 15 14 14 14 13 12 11 11 11 11 11 12 12 12 13 14 15 17 17 18 19 19 21 22 24 25 26 28 29 30 31 32 33 35 37 38 39 40 40 41 41 42 42 41 42 41 41 42 41 41 43 44 45 46 46 46 44 43 42
45 45 44 43 42 40 39 38 37 35 34 33 32 30 29 28 27 26 25 24 23 22 21 20 19 18 17 16 15 15 14 14 14 13 11 11 10 11 11 11 11 12 13 14 15 16 17 18 19 20 21 23 24 26 28 29 30 31 33 34 35 36 36 38 40 41 42 41 41 42 43 43 44 45 45 45 46 46 45 45 45 46 48 49 49 47 46 45
45 44 43 42 41 40 39 37 36 35 33 32 30 29 27 27 26 25 24 23 23 21 20 19 19 18 17 17 16 15 13 14 14 12 11 11 11 11 11 12 12 13 14 14 15 16 17 19 21 23 24 25 27 29 30 32 33 34 35 36 38 39 38 39 41 42 44 43 43 44 44 44 45 46 47 48 49 49 48 47 46 46 47 47 48 48 48 48
43 43 42 41 40 38 37 36 34 33 32 31 29 27 26 26 25 25 24 23 22 21 20 19 19 18 17 17 16 14 13 14 13 11 11 11 11 11 12 13 13 13 14 15 17 18 20 22 24 25 26 28 30 31 33 34 36 36 37 38 39 40 40 41 42 42 44 44 44 45 44 44 47 48 49 51 50 49 49 49 49 48 46 46 45 46 47 48
40 40 39 38 37 36 35 34 33 33 31 30 29 28 27 27 26 25 23 22 21 21 20 20 19 18 18 17 15 14 15 14 12 11 12 11 11 11 11 12 14 15 16 18 20 21 23 25 26 27 29 30 31 32 33 35 36 38 38 39 40 41 41 41 41 42 44 46 45 45 45 46 48 50 51 51 51 51 52 53 52 51 49 48 47 47 48 49
39 39 38 37 37 35 34 34 34 33 31 30 29 29 29 27 26 23 21 21 21 20 20 19 18 18 17 16 15 14 14 12 10 10 11 10 10 12 13 15 18 19 20 21 22 24 26 27 28 29 30 31 32 33 34 35 36 38 39 40 40 41 43 42 42 44 46 48 48 47 46 47 49 51 49 49 51 53 53 54 55 55 55 54 53 52 50 49
39 38 38 37 36 35 35 34 33 32 30 30 30 30 29 27 25 23 21 21 21 20 18 18 17 17 15 14 12 11 9 9 9 9 11 12 13 15 16 18 21 22 22 23 24 25 26 27 29 30 31 32 33 34 35 35 35 37 38 40 41 42 44 45 46 46 46 48 49 49 47 46 48 50 51 51 53 56 56 57 57 58 59 59 57 55 53 50
38 37 37 36 36 35 34 33 32 31 31 31 31 30 28 26 24 22 21 19 19 18 16 15 14 13 12 11 10 9 9 10 12 12 13 15 16 18 19 20 22 23 23 24 25 26 28 29 29 31 31 32 33 34 35 35 36 37 39 40 42 44 45 46 47 48 48 49 52 53 52 50 48 51 55 56 57 57 58 58 58 57 57 56 56 55 53 50
37 36 35 35 34 33 32 31 30 30 30 29 28 27 24 23 20 19 17 15 16 15 13 13 13 12 11 9 9 11 11 12 14 15 16 17 18 20 21 23 24 25 25 26 27 28 29 29 30 31 32 33 35 36 36 37 38 40 41 42 44 45 46 47 48 49 50 51 53 55 55 54 53 54 56 58 58 56 54 53 52 51 51 51 51 50 48 47
35 34 33 32 31 30 29 29 28 28 27 26 24 22 20 18 16 15 13 12 14 14 13 13 13 12 12 11 11 13 14 14 16 17 18 20 21 22 23 24 25 25 25 26 28 28 29 30 31 32 33 35 36 37 38 39 41 42 43 44 45 45 46 47 48 49 49 50 52 53 54 55 54 54 55 55 54 51 47 46 45 45 47 48 48 47 45 44
32 31 30 29 28 27 27 26 25 25 24 23 21 19 18 16 14 13 12 12 14 14 14 14 14 14 13 14 14 15 16 18 19 20 21 22 22 23 24 24 24 25 26 27 28 29 30 32 33 33 35 37 38 39 40 41 42 43 44 45 45 46 47 47 47 48 49 50 51 51 52 52 49 48 49 47 45 44 43 42 42 43 46 47 47 46 45 44
29 28 27 26 25 25 24 23 22 21 21 20 19 18 17 16 15 14 12 13 15 14 15 16 16 15 15 16 17 17 18 19 20 21 21 22 22 23 25 25 26 27 28 29 30 31 32 34 34 34 36 37 39 40 41 42 43 43 44 44 45 46 46 47 48 47 49 50 49 47 47 47 45 43 44 42 41 43 44 44 43 42 44 45 44 43 42 42
26 25 24 23 22 22 21 20 19 19 19 19 19 18 18 18 17 14 13 15 16 15 16 17 16 16 17 18 18 19 19 20 21 22 23 24 25 27 28 28 29 29 29 30 30 31 32 34 34 35 36 37 39 41 43 43 44 44 45 44 44 45 46 48 48 48 49 47 45 44 43 44 45 44 43 42 42 44 46 47 46 45 44 44 43 42 42 42
23 22 21 20 20 19 18 18 18 18 18 19 20 19 19 18 17 15 15 16 16 16 17 17 17 18 18 18 19 20 21 22 23 24 26 26 26 26 26 26 26 26 26 28 29 31 32 34 35 36 37 38 40 41 42 43 43 44 45 45 46 47 47 48 48 48 47 45 44 44 43 42 43 45 45 43 43 45 46 48 49 48 47 45 44 43 43 44
20 19 19 18 18 18 17 17 17 16 17 19 20 19 19 16 15 16 17 17 17 18 18 18 18 19 20 20 22 23 23 24 25 26 27 26 26 27 26 27 27 28 28 29 30 32 33 34 35 37 38 40 40 40 41 42 44 44 44 46 48 49 49 49 49 48 47 45 43 45 46 43 42 44 45 42 42 44 46 47 49 49 48 47 46 44 44 46
18 18 18 18 18 18 18 18 17 16 18 19 20 21 19 14 15 18 19 18 19 19 19 19 20 21 23 23 24 25 26 27 28 29 29 29 30 30 30 30 31 33 34 33 33 34 35 36 37 38 40 41 42 43 44 45 46 46 46 48 49 50 50 50 51 51 50 47 43 44 47 47 45 45 43 42 44 45 46 47 49 49 50 50 49 48 47 46
20 20 20 20 20 19 18 18 17 17 18 19 23 23 17 14 17 20 19 19 20 20 20 21 22 24 25 26 27 28 29 30 30 31 32 30 30 30 30 30 31 33 34 34 35 36 38 40 40 42 43 44 45 46 47 46 46 46 48 49 49 49 50 50 51 52 53 52 48 46 48 49 49 46 42 44 47 47 47 48 48 49 50 52 53 53 52 50
21 21 20 20 19 19 18 17 17 17 18 22 25 20 15 16 19 20 20 21 22 22 23 24 25 27 28 29 30 30 31 32 32 32 32 31 31 32 32 32 33 34 34 35 36 37 39 41 43 44 45 46 47 47 47 46 46 47 48 49 49 49 50 51 52 52 54 55 52 50 50 50 50 45 42 47 47 46 47 48 48 49 48 49 51 54 55 54
21 20 20 19 18 19 19 18 18 17 19 25 22 15 15 19 21 21 22 23 23 25 26 27 28 29 30 32 32 32 33 34 33 33 33 33 34 34 34 35 35 35 37 38 39 40 40 42 43 45 46 47 47 48 48 48 47 48 48 49 50 50 51 53 54 53 53 56 55 54 54 54 52 47 45 49 48 47 48 48 48 49 48 48 49 51 54 54
20 20 19 19 20 20 19 19 19 19 23 25 18 15 19 22 22 23 24 24 26 27 28 29 30 31 32 33 33 33 33 33 33 34 34 34 34 34 35 36 36 38 39 40 41 43 43 43 43 45 47 47 48 49 49 49 50 50 50 51 52 52 53 55 57 56 55 57 57 56 57 59 58 53 50 51 51 50 49 49 51 51 50 49 50 51 53 54
20 21 21 21 21 19 18 19 20 22 26 23 16 17 22 23 24 25 25 27 29 30 31 31 32 34 34 34 33 33 33 33 33 34 34 34 35 35 36 37 38 39 40 42 43 44 46 46 44 45 47 47 48 49 50 50 50 50 51 52 53 54 54 55 57 57 56 58 60 59 62 63 61 57 54 54 54 52 51 52 53 54 53 53 52 53 54 56
21 22 21 21 20 18 18 19 23 27 25 18 17 22 24 25 26 27 28 30 31 32 32 33 34 35 35 34 34 34 34 34 34 34 34 35 36 36 38 39 40 41 41 43 44 45 47 48 47 45 45 46 47 48 50 50 50 50 51 53 53 53 54 56 57 56 55 58 59 61 66 68 61 57 55 56 55 53 53 54 55 55 55 54 54 54 56 57
23 22 20 20 19 17 18 22 27 26 20 17 20 24 25 27 28 29 30 31 32 33 33 34 34 34 34 35 34 34 34 34 34 35 36 37 37 38 39 40 41 42 43 43 44 45 47 49 49 47 45 45 47 49 51 52 51 51 52 53 53 52 52 56 57 55 54 57 57 58 67 71 62 57 58 58 57 57 57 57 57 56 56 56 56 56 57 59
22 19 19 19 17 17 21 25 24 21 19 21 23 25 27 28 30 30 31 32 32 33 33 33 34 34 34 34 33 32 32 33 35 36 37 38 39 40 41 42 42 43 44 44 45 47 48 50 51 51 49 47 48 50 52 53 54 54 53 52 51 50 51 55 58 56 54 58 58 56 66 72 64 58 61 60 59 60 59 60 61 60 60 61 61 60 60 62
20 18 18 19 16 18 24 23 20 20 21 23 24 26 28 30 31 31 32 33 33 33 33 33 33 33 33 32 32 31 32 34 36 37 39 40 41 42 42 43 43 44 45 45 46 48 49 51 53 54 53 50 49 50 52 54 55 54 53 51 50 50 50 52 57 57 58 62 61 59 68 72 66 62 63 61 61 63 63 65 67 67 66 65 65 65 65 66
18 16 17 19 17 20 24 22 20 23 23 23 26 28 29 31 32 33 33 33 33 32 32 32 32 32 32 32 32 32 33 34 36 38 40 41 42 43 43 44 44 45 46 47 49 50 52 53 55 57 55 52 50 51 53 55 55 54 53 51 51 52 52 55 58 60 62 65 64 65 72 73 69 65 64 65 68 70 71 71 71 70 69 69 69 70 70 70
16 16 17 18 18 22 24 21 21 24 24 25 28 30 31 32 33 33 33 32 31 31 31 31 31 32 33 33 33 33 34 35 37 40 42 43 44 44 44 45 46 47 48 50 51 52 53 54 56 58 58 56 54 54 57 58 57 55 54 53 55 56 57 59 61 63 66 67 65 69 74 74 71 67 68 74 77 76 75 74 73 72 72 71 71 70 70 70
17 17 17 18 20 22 22 20 21 24 26 27 30 32 33 33 32 31 31 30 30 30 30 31 32 33 34 35 35 35 36 37 39 42 43 44 45 46 46 47 48 49 50 50 51 51 52 52 54 57 58 57 56 56 58 59 58 56 55 55 58 59 60 63 65 68 69 66 67 73 75 74 72 72 75 80 80 78 78 78 76 74 72 71 70 68 68 69
17 17 18 19 20 21 20 21 24 26 27 29 32 33 33 32 30 29 29 29 30 30 31 32 33 34 35 36 36 37 38 39 41 43 45 46 46 47 47 47 48 48 48 49 50 51 51 52 54 57 58 56 54 55 57 59 60 60 59 59 61 61 63 67 69 69 67 67 72 76 74 74 77 78 80 83 81 80 80 77 75 73 71 70 70 68 66 67
18 18 19 19 19 21 22 24 26 27 29 32 33 32 31 29 29 29 29 30 30 31 32 33 33 35 35 36 38 39 40 42 43 44 46 46 46 46 46 46 47 47 48 50 51 52 54 54 55 58 59 57 56 58 59 61 63 64 63 63 64 64 66 68 70 69 68 71 77 77 76 78 81 82 83 84 82 79 77 76 75 72 72 73 72 67 63 63
18 18 18 19 21 23 25 26 27 29 32 32 31 30 29 28 29 29 30 31 31 32 33 34 35 36 37 38 40 41 42 42 43 45 46 47 47 46 46 47 48 49 51 52 54 55 56 57 56 58 59 57 56 59 61 62 64 65 65 66 66 67 69 69 70 70 72 75 78 79 80 80 82 83 83 81 80 78 76 75 74 74 76 76 71 66 65 65
17 18 19 21 22 24 26 27 29 31 32 30 29 28 28 29 30 30 31 32 32 33 34 36 37 38 39 40 41 42 43 44 45 46 47 48 49 49 49 50 51 52 53 55 56 57 58 58 57 58 59 56 55 58 62 63 64 65 66 67 69 70 71 71 72 74 74 75 77 80 81 79 80 81 80 79 80 78 76 75 75 77 78 75 71 71 72 72
17 19 21 22 24 26 27 29 31 31 29 28 27 27 28 29 30 31 31 32 33 34 35 36 37 39 40 41 42 44 45 47 48 49 50 50 51 52 52 53 53 54 55 56 57 58 59 59 58 59 60 57 54 57 61 63 65 67 68 69 71 72 73 73 75 77 76 77 80 82 80 77 76 77 79 80 77 74 73 73 74 77 78 78 79 81 83 81
18 20 22 24 25 27 29 30 29 28 26 26 27 28 29 30 31 32 32 33 34 35 36 37 39 40 41 42 44 46 47 49 50 51 51 52 53 53 53 53 54 54 55 56 57 58 59 60 60 61 63 60 57 59 61 62 65 67 70 72 74 75 76 76 77 78 79 81 82 81 78 76 77 79 79 77 74 72 72 72 73 78 82 86 88 87 86 84
21 23 24 25 27 28 28 28 26 25 25 26 27 29 30 31 32 33 33 34 35 37 37 39 40 42 43 44 45 47 49 50 51 51 51 52 53 53 53 53 53 54 55 57 58 59 60 62 62 63 65 65 62 63 65 65 67 70 74 77 78 78 78 78 78 79 81 81 79 78 78 80 80 79 77 76 76 77 77 76 78 82 85 87 88 87 86 86
Wind_Direction
216 217 218 218 219 219 218 217 214 214 213 209 207 204 203 201 197 197 203 213 227 237 241 244 246 247 246 249 253 257 262 265 267 267 269 271 273 277 279 280 280 277 271 263 256 251 251 253 256 259 262 265 262 257 251 251 261 270 275 276 273 268 271 275 275 278 277 281 291 300 303 307 305 307 314 316 316 317 315 314 315 313 311 314 317 314 312 313
216 214 214 214 215 216 216 215 213 211 210 208 205 204 205 204 196 195 208 221 235 246 255 260 259 258 258 258 259 262 265 267 269 274 276 275 275 277 280 282 281 278 271 263 257 253 255 258 259 263 265 265 258 251 254 261 270 275 275 273 271 270 275 274 270 274 274 279 290 295 299 306 307 308 312 313 313 312 310 310 310 309 308 309 313 312 309 309
216 215 213 213 213 213 214 213 212 209 207 207 205 204 204 203 200 201 211 222 233 244 250 252 250 251 253 254 257 260 263 266 270 274 276 275 277 281 286 288 286 282 273 261 254 252 256 259 262 266 264 258 253 255 265 272 277 281 276 274 275 276 280 276 273 278 280 282 287 291 295 300 305 308 308 310 310 307 307 309 307 306 307 307 310 311 308 307
215 214 213 212 211 210 211 211 209 207 204 202 202 203 204 208 212 216 223 231 237 243 244 245 245 245 246 248 253 257 259 262 263 265 268 272 277 283 285 283 276 264 254 245 245 250 255 260 264 263 253 249 255 263 276 282 285 287 280 279 280 279 281 280 279 282 284 286 288 290 293 297 302 304 304 307 306 303 306 308 306 306 305 306 308 309 308 306
213 213 212 211 209 207 207 206 205 202 199 198 200 203 208 213 220 225 229 233 237 239 240 241 242 243 243 244 248 249 249 249 252 253 256 264 268 266 257 246 248 247 245 245 249 255 258 260 255 246 248 254 267 279 291 290 285 287 281 280 283 282 283 283 284 285 287 289 291 291 293 297 301 301 301 302 300 301 306 306 304 305 304 305 306 307 307 305
209 210 211 210 208 205 203 202 201 198 196 198 202 207 213 219 223 225 228 231 234 235 236 237 237 236 235 235 234 233 228 227 236 230 220 229 240 247 249 246 251 251 250 250 251 252 247 242 232 238 262 280 296 296 297 291 282 283 281 280 283 284 286 288 288 288 289 291 293 294 295 298 300 300 299 297 296 301 306 303 301 302 302 305 305 304 305 305
203 205 207 207 207 205 202 200 199 198 199 203 209 214 219 223 223 224 226 228 231 232 231 227 223 218 213 208 202 192 186 190 194 182 166 157 206 263 273 123 109 225 246 235 231 224 211 225 251 270 299 311 309 297 292 288 281 282 284 286 286 287 289 291 291 292 293 295 297 297 298 299 299 299 297 294 297 302 302 299 298 300 301 302 301 302 303 304
192 198 201 203 204 204 204 203 203 204 208 213 216 217 217 217 217 219 222 226 226 222 212 198 186 181 174 169 166 160 161 166 158 138 110 67 51 56 76 81 83 94 106 139 126 141 234 347 332 322 324 316 304 294 289 287 285 285 288 292 292 293 294 295 295 295 296 297 299 299 299 299 298 298 295 294 298 300 298 296 297 300 301 299 298 299 301 301
174 183 190 194 196 198 200 202 205 207 211 213 213 210 208 208 210 213 216 213 201 180 163 155 149 146 143 141 140 140 141 144 127 92 69 62 62 70 78 81 83 82 78 77 53 30 7 355 346 333 324 311 298 296 292 290 291 290 292 294 294 296 297 296 296 295 297 298 298 298 299 299 297 296 295 294 297 296 295 295 296 299 300 298 297 297 298 299
146 154 163 170 176 180 185 190 194 197 201 202 200 197 197 198 197 191 178 163 148 139 135 133 129 127 126 124 123 122 112 99 86 73 72 77 75 78 77 74 72 63 57 50 29 17 5 352 341 329 318 308 299 297 294 292 294 293 295 296 295 297 296 296 296 295 297 297 296 297 299 299 296 296 295 294 295 295 296 296 295 297 298 297 298 297 297 298
124 129 135 142 151 160 167 173 177 181 184 184 182 181 179 170 156 144 136 130 125 123 122 118 117 115 113 110 105 98 86 81 82 81 83 83 77 76 72 64 58 48 39 29 15 6 356 344 333 321 313 305 298 298 296 293 293 294 296 297 297 297 296 296 296 296 298 297 296 297 298 299 297 297 296 294 295 295 295 295 295 296 297 297 297 298 298 298
113 117 122 129 138 145 151 156 159 163 166 164 158 151 142 131 126 123 119 116 114 113 112 110 110 106 101 96 91 88 89 89 90 89 86 81 74 71 65 55 46 35 25 15 5 356 345 334 324 315 309 303 300 300 298 296 295 297 298 298 298 298 297 297 297 298 299 298 298 298 298 299 297 297 297 296 295 295 294 293 293 295 297 297 297 297 296 296
108 113 119 125 132 136 140 143 145 147 145 137 130 124 120 117 115 113 110 108 107 106 104 103 100 97 94 92 92 92 93 92 90 87 83 77 69 63 56 44 34 24 13 3 353 344 335 326 317 312 309 305 304 302 300 300 299 299 299 297 297 298 298 299 299 300 300 299 299 298 298 299 298 297 297 297 295 294 294 294 295 296 297 296 295 295 294 294
106 112 118 126 133 136 138 138 136 131 124 118 115 113 112 111 109 107 106 105 104 103 101 99 97 97 96 95 95 94 91 89 86 82 75 67 60 51 43 33 24 14 3 352 342 334 328 322 316 312 309 306 305 303 302 302 300 300 301 300 298 298 299 299 299 300 299 298 297 297 298 300 302 300 299 298 297 294 294 296 298 298 297 295 295 294 293 293
99 106 115 125 132 135 134 129 123 116 111 109 108 109 108 107 107 107 107 106 104 103 101 99 98 97 96 96 94 90 86 82 78 73 65 57 49 40 31 22 12 3 352 342 335 330 326 321 315 310 306 304 302 302 303 303 302 301 301 301 299 298 298 298 297 297 297 297 298 298 297 299 306 308 304 299 297 296 297 299 299 298 298 297 296 294 293 293
97 103 110 117 121 122 118 113 109 106 105 106 106 107 107 107 106 105 104 103 101 100 98 98 97 96 95 92 88 83 79 75 69 63 56 47 39 30 20 10 0 352 344 338 332 326 321 315 311 308 305 304 304 304 304 303 303 301 299 298 297 297 297 297 298 298 298 298 301 301 298 301 308 312 308 302 300 301 302 302 301 300 300 299 297 296 294 293
95 98 101 104 106 106 105 104 104 104 104 104 104 104 103 102 100 100 99 98 98 97 96 95 93 92 90 84 80 77 73 67 59 53 47 38 29 20 10 0 352 345 339 331 323 318 318 315 314 312 309 308 306 305 303 302 303 302 301 301 301 303 302 302 303 303 302 302 306 307 303 305 310 311 309 307 305 305 303 302 302 301 301 300 298 296 293 291
93 95 97 98 100 100 102 102 103 103 102 101 100 100 99 99 98 98 98 97 96 95 94 91 87 86 84 79 76 71 63 57 49 42 37 28 20 11 3 354 347 341 335 329 326 324 322 317 313 311 309 308 307 306 305 304 304 304 304 304 305 308 309 307 306 307 306 306 309 309 305 307 310 309 308 308 307 306 303 302 301 301 301 300 299 296 292 289
92 93 94 96 97 98 99 99 100 100 100 101 101 101 101 101 102 101 100 99 98 96 93 90 87 84 81 75 69 63 57 52 44 35 27 21 15 7 358 351 345 341 336 332 328 323 317 312 310 311 311 311 310 310 310 309 308 308 308 309 308 308 311 311 309 309 308 307 309 308 307 309 309 309 308 308 308 307 305 303 302 301 300 300 298 296 293 289
95 96 96 97 97 98 99 99 101 102 103 105 105 105 105 103 103 102 100 98 96 95 92 89 86 81 76 71 65 60 56 50 41 30 20 17 11 2 355 350 344 337 332 326 319 315 314 314 315 315 314 314 313 313 313 311 310 310 310 312 311 309 311 312 310 309 308 307 309 309 311 312 311 310 309 309 308 307 306 304 303 302 300 298 296 294 291 289
99 99 100 100 101 101 102 102 103 103 103 104 104 104 102 99 97 95 93 93 91 90 87 84 80 76 72 69 64 58 53 47 37 24 17 14 6 359 355 347 336 325 321 319 317 317 318 316 315 314 314 314 314 314 314 314 312 311 311 310 311 310 310 312 312 312 310 309 310 310 312 314 312 310 310 309 307 306 306 305 304 303 300 296 293 291 289 288
98 99 99 100 100 100 101 101 100 98 97 97 97 96 93 91 88 87 88 90 88 86 83 80 76 73 68 63 59 52 48 43 32 21 14 8 359 350 342 335 329 321 318 318 318 318 317 316 315 314 314 314 314 314 314 314 312 310 310 310 311 311 310 312 313 314 313 311 310 311 313 313 311 311 312 310 307 306 306 305 304 302 299 297 295 293 292 291
95 95 96 96 96 96 96 94 92 91 91 92 91 89 87 85 85 86 87 87 84 82 79 75 71 66 61 56 51 46 43 35 21 13 4 352 343 338 330 327 329 327 323 321 319 318 318 318 317 316 316 315 314 314 313 314 313 312 313 314 315 315 314 313 314 315 315 314 313 312 313 314 313 313 312 310 308 308 307 306 306 305 303 302 301 301 299 297
91 92 92 93 93 92 90 89 88 89 89 88 85 84 83 84 84 83 81 78 78 76 73 71 66 61 57 50 45 37 31 18 1 354 348 339 333 332 329 328 329 329 327 324 321 320 319 318 318 317 316 316 315 315 315 316 317 317 318 317 317 316 316 316 315 315 316 317 316 313 312 313 315 314 312 311 311 311 312 311 311 311 309 308 308 307 306 304
89 89 89 89 89 89 87 87 87 87 84 81 79 79 79 79 78 77 76 74 74 71 68 66 62 57 50 43 35 19 9 1 350 342 339 337 334 333 332 331 330 330 328 325 322 321 321 320 320 320 319 319 319 319 320 319 319 318 317 317 317 317 318 319 319 318 317 318 318 317 315 313 314 314 312 312 314 315 316 316 316 315 313 312 312 311 311 310
88 87 87 86 86 86 86 85 83 80 78 75 75 75 74 74 73 72 72 70 70 66 59 55 51 45 37 27 14 5 0 352 346 343 341 340 339 336 335 333 332 331 328 326 325 324 325 325 324 324 323 322 322 321 320 319 317 317 318 318 319 321 321 321 322 321 321 321 321 322 321 318 316 314 313 315 318 320 321 321 321 319 316 315 317 317 317 317
87 87 86 85 85 84 83 81 79 76 75 74 73 73 72 71 68 64 60 58 60 56 47 43 38 32 25 14 6 3 358 351 347 346 343 341 339 337 337 336 334 332 330 330 330 329 328 327 326 325 323 322 320 319 318 317 317 318 319 320 322 322 322 323 324 324 324 324 325 326 325 324 323 322 320 321 321 321 322 322 322 321 322 324 326 327 327 325
87 86 85 85 83 82 80 78 77 76 75 73 72 70 67 64 60 54 46 44 48 44 38 35 30 26 18 10 7 1 355 352 349 346 344 343 343 342 341 340 339 337 337 336 332 330 328 326 325 323 321 320 319 318 318 318 319 321 322 323 323 322 323 324 324 325 327 328 329 331 330 330 331 328 326 327 325 325 325 326 328 331 334 336 337 335 333 330
86 86 85 83 81 79 77 76 75 74 73 72 70 64 59 55 51 46 38 40 43 36 32 30 25 19 11 7 5 359 357 354 351 351 351 350 348 347 344 344 344 341 337 334 330 328 326 324 323 322 321 321 321 321 321 322 323 324 324 324 324 324 324 324 324 327 329 331 334 336 336 335 334 331 331 332 331 331 333 335 338 340 340 340 338 335 331 327
87 87 85 82 80 78 76 74 73 70 68 67 65 60 54 48 46 41 33 38 38 31 28 25 20 15 11 10 7 3 2 360 357 357 356 354 351 348 347 345 344 339 334 330 327 325 323 322 322 322 322 323 325 326 326 326 326 324 323 323 324 324 324 325 326 329 331 335 338 339 338 336 333 333 335 334 333 333 336 338 338 339 338 335 333 332 329 326
86 85 83 80 78 75 72 70 67 65 64 62 59 56 50 43 39 35 31 33 32 28 27 24 21 19 15 15 11 7 5 3 2 359 357 355 350 347 344 340 337 333 329 325 324 323 324 325 325 325 325 326 328 329 329 328 326 326 326 325 324 323 324 326 328 332 334 339 341 338 337 336 333 333 335 335 332 331 333 334 334 333 332 329 326 326 326 327
81 79 77 74 71 68 66 63 61 60 59 57 53 48 45 34 24 26 29 32 32 30 30 27 26 22 18 16 12 8 5 3 1 358 355 352 347 344 341 337 335 331 329 327 327 328 329 328 328 328 329 328 328 328 328 327 327 329 328 327 326 326 328 330 332 335 337 340 342 337 335 335 334 334 335 334 331 329 331 331 329 327 325 323 321 320 320 322
75 73 71 68 65 64 64 61 57 53 51 52 46 40 37 20 13 26 31 33 34 33 31 28 26 23 18 14 9 4 1 359 357 354 352 349 347 345 341 338 336 335 334 333 333 332 331 331 332 331 332 332 331 330 329 330 331 331 330 330 331 331 332 333 334 335 336 338 341 337 333 333 334 336 335 332 329 328 328 328 325 323 321 320 318 316 315 315
71 70 68 65 63 59 57 55 49 42 41 41 39 35 26 10 19 32 34 35 36 33 31 27 22 18 13 8 3 0 357 355 354 352 350 348 345 343 340 338 336 336 337 336 336 336 335 335 335 335 335 334 334 333 333 334 334 332 332 333 333 333 333 333 334 334 333 334 337 335 332 331 333 337 335 330 328 326 325 324 323 322 321 320 317 315 314 312
68 66 62 59 56 51 47 43 40 36 31 34 37 29 12 14 29 37 36 36 35 29 25 20 15 10 7 3 360 358 355 353 352 350 348 346 344 344 342 340 339 339 338 338 338 340 340 338 337 337 336 336 335 335 336 336 334 333 333 333 333 334 333 332 333 332 329 330 332 333 332 330 331 335 332 328 326 323 321 320 319 319 318 317 316 315 314 313
63 57 53 50 46 43 40 34 35 32 28 35 35 18 13 28 38 39 36 33 28 21 17 13 9 5 1 359 357 355 353 351 351 349 348 347 346 345 344 343 342 340 340 341 341 343 345 341 338 337 336 337 338 337 337 336 334 334 334 333 334 334 333 332 332 330 327 326 327 329 330 328 328 331 330 325 322 321 318 315 314 315 315 314 314 313 312 311
55 50 44 40 38 37 34 31 32 31 32 37 31 15 27 38 38 35 30 24 19 14 11 7 4 0 359 358 355 354 352 351 350 349 349 349 347 346 345 344 343 342 342 343 343 344 346 344 340 338 338 338 340 340 338 336 335 335 334 334 334 334 334 332 330 328 327 324 324 326 326 324 326 330 330 324 320 320 317 314 313 313 312 311 310 310 310 309
46 43 37 34 33 32 32 32 32 32 37 37 26 25 36 36 31 27 20 15 11 8 5 2 359 358 357 356 354 354 353 351 351 351 350 350 348 347 346 344 343 343 343 344 344 344 344 344 342 339 338 339 341 341 338 335 335 333 332 333 333 333 333 331 328 327 325 322 322 323 323 322 326 330 328 323 320 320 318 315 314 312 312 311 309 309 308 307
39 38 33 31 32 32 32 33 34 37 38 32 26 31 32 27 23 18 12 9 5 2 1 358 356 356 356 355 355 354 353 353 353 353 351 350 349 347 346 344 342 343 343 342 343 342 342 342 341 339 339 338 339 338 335 334 333 332 331 331 332 333 331 328 326 325 323 320 319 322 321 321 327 331 325 321 321 320 318 316 314 312 311 310 309 308 306 305
36 35 29 28 32 34 33 34 39 41 36 28 28 29 23 19 16 10 6 3 359 358 357 355 356 356 355 355 354 353 354 354 355 353 352 350 348 345 344 343 341 341 341 340 339 339 338 338 337 337 337 336 336 336 333 331 330 330 331 330 332 332 328 324 323 323 321 318 318 321 319 321 329 329 321 320 321 318 316 314 312 310 308 308 307 305 304 303
38 32 25 27 32 37 39 39 41 40 28 23 23 19 15 12 8 4 1 359 357 356 355 354 355 355 355 355 354 354 355 355 355 353 350 348 346 344 343 342 341 339 338 336 335 335 334 334 332 332 334 334 335 335 330 327 328 329 330 331 331 331 326 322 320 321 320 317 318 318 315 320 330 327 320 320 318 315 313 310 308 308 308 308 307 305 304 303
39 29 26 33 35 42 47 42 35 29 21 17 13 9 8 6 3 1 358 356 355 354 354 355 356 355 355 355 355 356 355 354 354 351 348 347 345 343 342 340 339 338 336 334 332 332 331 331 330 329 331 333 334 331 326 324 325 327 329 331 331 329 325 320 319 321 320 319 319 315 312 319 328 324 319 317 313 311 311 310 309 310 310 310 308 307 307 306
40 31 33 39 36 42 46 36 23 20 13 7 6 5 4 2 360 357 355 354 354 354 355 357 357 357 357 357 357 356 353 352 350 348 347 346 344 343 341 340 339 338 336 335 333 332 332 331 330 328 330 331 331 328 324 324 326 328 330 331 330 327 323 320 320 320 320 321 320 314 313 320 324 320 315 312 311 312 313 312 311 311 311 309 308 308 307 306
41 36 38 38 34 38 38 24 14 12 5 2 4 3 0 358 355 353 353 354 355 357 358 359 359 359 359 358 356 353 349 347 345 345 345 344 343 343 342 342 341 339 338 336 335 334 333 333 331 329 330 332 333 331 327 328 330 331 332 332 330 327 324 322 322 320 319 321 319 314 315 320 320 316 312 311 313 315 313 311 311 310 309 308 307 307 307 306
42 38 35 32 29 30 25 10 5 5 1 1 1 358 356 354 352 353 355 358 0 1 2 2 1 360 358 357 354 350 347 344 343 344 344 343 343 343 343 343 341 340 338 337 335 335 335 334 332 331 332 336 338 336 332 331 332 332 333 332 330 327 325 323 322 321 320 320 318 316 317 318 316 313 312 313 314 314 312 311 311 310 309 309 308 309 309 309
40 34 31 26 21 18 10 2 2 1 358 358 356 353 352 352 355 359 2 4 6 5 4 3 1 359 357 355 352 350 348 346 345 344 344 343 343 343 342 341 340 339 337 336 335 336 336 336 335 334 335 338 339 336 332 332 332 334 335 333 330 327 325 323 322 322 320 318 317 318 317 315 313 313 314 314 313 313 312 311 311 310 310 311 311 310 310 309
32 26 22 16 10 8 4 1 360 358 356 354 352 352 355 358 3 7 8 8 8 6 4 2 359 358 356 353 351 349 348 347 346 344 343 342 342 342 341 340 340 339 337 336 336 336 336 336 336 335 335 339 340 335 333 332 332 334 334 332 329 326 324 323 322 322 320 317 316 318 317 314 313 314 315 314 313 313 312 311 311 310 311 312 310 307 306 305
23 17 11 6 4 3 1 358 356 354 352 351 353 357 3 7 10 11 10 9 6 4 1 358 357 354 352 351 349 347 346 345 343 342 341 341 340 340 340 340 340 339 338 337 336 336 336 336 336 334 333 338 340 335 332 332 332 333 333 329 327 325 324 323 322 321 319 317 316 317 317 315 314 314 314 313 313 312 311 310 310 309 310 309 306 302 302 300
13 8 4 3 1 358 356 354 352 350 351 355 0 6 11 14 13 11 9 5 2 0 358 355 353 351 349 348 346 345 344 342 341 340 340 339 339 339 340 340 340 340 339 337 336 336 336 336 336 333 333 337 338 333 330 330 330 331 329 327 326 325 324 322 321 320 319 318 317 317 317 315 312 312 313 313 312 311 309 307 307 307 307 306 303 301 300 299
5 1 359 358 356 353 352 351 349 351 357 4 9 13 15 15 11 8 5 2 359 357 355 353 351 349 348 346 345 344 343 342 341 341 340 340 339 339 340 340 340 341 339 337 336 336 336 336 336 334 332 335 335 330 327 328 329 328 326 324 324 323 323 322 321 320 320 319 318 317 316 313 312 312 313 313 311 309 306 304 302 303 304 301 299 299 299 298
360 357 355 354 351 350 349 349 352 359 6 11 13 15 14 11 8 4 1 359 357 354 352 350 349 348 347 345 345 344 343 342 342 341 341 340 339 340 341 341 341 340 338 337 337 337 336 336 336 334 332 333 332 328 325 325 326 325 323 323 324 324 324 323 322 321 320 319 318 317 315 314 314 314 312 310 307 303 300 297 297 298 299 297 297 298 298 295
356 354 353 351 349 349 350 354 1 8 11 12 13 11 9 6 4 0 357 355 354 351 350 348 347 346 345 344 344 343 343 342 342 341 341 340 339 341 342 342 341 340 339 338 338 337 337 337 336 334 332 332 331 327 325 325 326 325 325 326 327 327 325 323 322 321 320 319 318 317 316 316 315 312 307 304 301 299 296 295 296 299 299 298 297 297 295 292
Height
5761 5763 5765 5767 5769 5771 5773 5774 5776 5778 5779 5781 5783 5784 5785 5786 5788 5789 5790 5791 5792 5793 5794 5795 5796 5797 5798 5798 5799 5799 5800 5799 5799 5800 5800 5800 5800 5799 5799 5799 5799 5799 5799 5799 5800 5800 5800 5800 5801 5801 5800 5800 5800 5800 5800 5800 5799 5799 5799 5798 5798 5797 5797 5796 5796 5795 5795 5794 5793 5792 5792 5791 5790 5788 5787 5786 5785 5784 5782 5781 5780 5779 5776 5775 5775 5773 5771 5769
5759 5762 5764 5766 5768 5770 5772 5773 5775 5777 5779 5780 5782 5783 5785 5786 5787 5789 5790 5791 5792 5793 5794 5794 5795 5796 5796 5797 5798 5798 5798 5798 5798 5799 5799 5799 5799 5799 5798 5798 5798 5799 5799 5799 5799 5800 5800 5800 5800 5800 5799 5799 5799 5799 5799 5799 5799 5798 5798 5797 5797 5796 5796 5795 5795 5794 5794 5793 5792 5791 5790 5789 5788 5787 5785 5784 5783 5782 5780 5779 5777 5776 5774 5773 5772 5771 5768 5766
5758 5760 5762 5765 5767 5769 5771 5773 5774 5776 5778 5780 5781 5783 5784 5786 5787 5788 5790 5790 5791 5792 5793 5794 5794 5795 5795 5796 5796 5797 5797 5797 5798 5798 5798 5798 5798 5798 5798 5798 5798 5798 5798 5799 5799 5799 5799 5800 5799 5799 5799 5799 5799 5799 5798 5798 5798 5797 5797 5796 5796 5795 5795 5794 5794 5793 5792 5792 5791 5790 5789 5788 5787 5785 5783 5782 5781 5779 5778 5776 5775 5774 5772 5770 5769 5768 5766 5763
5756 5759 5761 5764 5766 5768 5770 5772 5774 5776 5777 5779 5781 5782 5783 5785 5787 5788 5789 5790 5791 5791 5792 5793 5793 5794 5794 5795 5795 5796 5796 5796 5797 5797 5797 5797 5798 5798 5798 5798 5798 5798 5798 5798 5798 5799 5799 5799 5799 5798 5798 5798 5798 5798 5797 5797 5797 5796 5796 5795 5795 5794 5794 5793 5792 5791 5791 5790 5789 5788 5787 5785 5785 5784 5782 5780 5778 5777 5776 5774 5772 5771 5769 5767 5765 5764 5763 5761
5755 5757 5760 5762 5765 5767 5769 5771 5773 5775 5777 5778 5780 5781 5783 5785 5786 5787 5788 5789 5790 5790 5791 5792 5792 5793 5794 5794 5795 5795 5795 5796 5796 5797 5797 5797 5798 5798 5798 5798 5798 5798 5798 5798 5798 5798 5798 5798 5798 5798 5798 5798 5797 5797 5797 5796 5796 5795 5795 5795 5794 5794 5793 5792 5791 5790 5789 5788 5788 5787 5785 5783 5782 5781 5780 5778 5776 5774 5773 5772 5770 5768 5766 5764 5762 5760 5759 5758
5754 5756 5758 5761 5763 5766 5768 5770 5772 5774 5776 5778 5779 5781 5783 5784 5786 5787 5787 5788 5789 5789 5790 5791 5792 5792 5793 5793 5794 5795 5795 5796 5796 5796 5797 5798 5798 5798 5798 5797 5797 5797 5797 5798 5798 5798 5798 5798 5798 5798 5798 5797 5797 5796 5796 5796 5795 5795 5794 5794 5793 5793 5792 5791 5790 5789 5788 5787 5786 5785 5783 5781 5780 5779 5777 5776 5774 5772 5771 5770 5768 5766 5762 5760 5758 5756 5755 5754
5752 5755 5757 5759 5762 5765 5767 5769 5772 5774 5776 5777 5779 5781 5782 5783 5785 5785 5786 5787 5788 5789 5790 5791 5791 5792 5793 5793 5794 5794 5795 5795 5796 5797 5797 5797 5798 5797 5797 5797 5797 5797 5797 5797 5798 5798 5798 5798 5798 5797 5797 5797 5796 5796 5796 5795 5794 5794 5794 5793 5792 5792 5791 5790 5789 5788 5786 5785 5784 5782 5781 5779 5778 5777 5775 5772 5771 5771 5769 5766 5764 5763 5761 5758 5755 5753 5751 5750
5752 5754 5756 5759 5761 5764 5767 5769 5771 5773 5775 5777 5778 5780 5781 5783 5784 5785 5786 5787 5788 5789 5790 5791 5791 5792 5793 5793 5794 5794 5795 5796 5796 5797 5797 5797 5797 5797 5797 5797 5797 5797 5797 5798 5798 5798 5798 5798 5797 5797 5796 5796 5796 5795 5795 5794 5794 5793 5793 5792 5791 5790 5789 5788 5787 5786 5784 5783 5782 5780 5779 5777 5775 5775 5772 5769 5769 5768 5765 5762 5760 5759 5758 5756 5753 5750 5747 5746
5752 5754 5756 5758 5761 5764 5766 5768 5771 5773 5774 5776 5777 5779 5780 5782 5783 5785 5786 5787 5788 5789 5790 5791 5792 5792 5793 5794 5794 5795 5795 5796 5796 5797 5797 5797 5797 5798 5798 5798 5798 5798 5798 5798 5798 5798 5798 5797 5797 5796 5796 5795 5795 5794 5794 5793 5793 5792 5792 5791 5790 5789 5788 5787 5785 5784 5782 5781 5779 5778 5777 5774 5771 5771 5770 5766 5765 5764 5762 5759 5756 5754 5753 5751 5749 5747 5744 5742
5753 5754 5757 5759 5761 5764 5766 5768 5770 5772 5774 5775 5777 5779 5780 5782 5784 5785 5787 5788 5789 5790 5791 5791 5792 5793 5793 5794 5795 5796 5796 5796 5797 5797 5797 5797 5798 5798 5798 5798 5798 5798 5798 5798 5798 5797 5797 5797 5796 5796 5795 5795 5794 5794 5793 5793 5792 5791 5791 5790 5789 5787 5786 5785 5783 5781 5780 5778 5776 5776 5775 5772 5768 5767 5767 5764 5761 5760 5758 5756 5753 5751 5749 5747 5745 5743 5741 5738
5754 5756 5758 5760 5762 5764 5766 5768 5770 5772 5774 5775 5777 5779 5781 5783 5784 5786 5787 5788 5790 5790 5791 5792 5793 5794 5794 5795 5796 5796 5797 5797 5797 5798 5798 5798 5798 5798 5798 5798 5798 5798 5798 5798 5798 5797 5797 5796 5796 5795 5795 5794 5793 5793 5792 5792 5791 5790 5789 5788 5787 5786 5784 5782 5781 5779 5778 5776 5774 5773 5773 5770 5765 5763 5763 5761 5758 5756 5755 5753 5750 5748 5746 5744 5741 5739 5737 5734
5756 5758 5759 5761 5762 5764 5766 5768 5770 5772 5774 5776 5778 5780 5782 5784 5785 5787 5788 5789 5790 5791 5792 5793 5794 5795 5795 5796 5796 5797 5797 5797 5798 5798 5798 5799 5799 5799 5799 5799 5799 5798 5798 5798 5797 5797 5796 5796 5795 5795 5794 5794 5793 5792 5791 5791 5790 5789 5788 5786 5785 5784 5782 5780 5779 5777 5776 5774 5771 5770 5771 5770 5764 5760 5758 5756 5755 5752 5750 5749 5746 5745 5743 5740 5738 5735 5732 5730
5758 5759 5761 5762 5763 5765 5767 5769 5771 5773 5775 5777 5779 5781 5783 5785 5787 5788 5789 5790 5792 5793 5794 5794 5795 5796 5797 5797 5797 5798 5798 5798 5799 5799 5799 5799 5799 5799 5799 5799 5799 5798 5798 5798 5797 5797 5796 5796 5795 5795 5794 5793 5792 5791 5790 5789 5788 5787 5786 5785 5784 5782 5780 5778 5776 5775 5773 5771 5769 5766 5767 5768 5763 5757 5754 5752 5750 5747 5745 5744 5742 5741 5739 5736 5733 5731 5728 5725
5759 5760 5762 5763 5764 5766 5768 5770 5772 5774 5777 5779 5781 5783 5785 5786 5788 5789 5791 5792 5793 5794 5795 5796 5796 5797 5797 5798 5798 5799 5799 5799 5800 5800 5800 5800 5800 5800 5799 5799 5799 5798 5798 5797 5797 5796 5796 5795 5795 5794 5793 5792 5791 5790 5789 5788 5787 5786 5784 5782 5781 5781 5779 5777 5774 5773 5771 5769 5767 5763 5762 5765 5762 5755 5751 5747 5744 5742 5741 5739 5737 5735 5733 5731 5729 5726 5723 5720
5761 5762 5763 5764 5766 5768 5770 5772 5774 5777 5779 5781 5783 5785 5787 5788 5789 5791 5792 5793 5794 5795 5796 5797 5797 5798 5798 5799 5799 5800 5800 5800 5801 5801 5800 5800 5800 5800 5800 5799 5799 5798 5798 5797 5797 5796 5796 5795 5794 5793 5792 5791 5790 5789 5788 5786 5785 5784 5782 5780 5779 5778 5776 5774 5772 5770 5768 5765 5763 5760 5758 5759 5757 5751 5746 5742 5738 5736 5735 5734 5731 5729 5727 5725 5723 5721 5718 5715
5763 5764 5765 5766 5768 5770 5773 5775 5777 5780 5782 5784 5785 5787 5789 5790 5791 5792 5793 5795 5795 5796 5797 5798 5799 5799 5800 5800 5800 5801 5801 5801 5801 5801 5801 5801 5800 5800 5800 5799 5799 5798 5798 5797 5797 5796 5795 5794 5793 5792 5791 5790 5789 5787 5786 5784 5783 5781 5780 5778 5776 5774 5773 5771 5768 5766 5764 5761 5759 5757 5754 5754 5752 5746 5742 5737 5734 5732 5730 5727 5724 5722 5720 5718 5716 5715 5713 5710
5766 5767 5768 5770 5772 5774 5776 5778 5780 5782 5784 5786 5788 5789 5791 5792 5793 5794 5795 5796 5797 5798 5799 5800 5800 5801 5801 5801 5802 5802 5802 5802 5802 5801 5801 5801 5801 5800 5800 5800 5799 5799 5798 5798 5797 5796 5795 5794 5793 5791 5790 5789 5787 5786 5784 5782 5781 5779 5777 5775 5773 5770 5768 5766 5764 5762 5760 5758 5755 5752 5750 5750 5745 5741 5737 5732 5729 5728 5725 5721 5718 5715 5714 5712 5709 5708 5706 5704
5771 5772 5774 5775 5777 5779 5780 5782 5784 5785 5787 5789 5790 5792 5793 5794 5795 5796 5797 5798 5799 5800 5801 5801 5802 5802 5802 5803 5803 5803 5803 5802 5802 5802 5802 5802 5801 5801 5800 5800 5799 5799 5798 5797 5796 5795 5794 5793 5792 5790 5789 5787 5785 5784 5782 5780 5778 5776 5774 5772 5770 5768 5765 5762 5759 5757 5756 5754 5751 5748 5747 5745 5740 5735 5732 5727 5722 5721 5720 5717 5714 5711 5708 5706 5703 5700 5697 5695
5777 5778 5779 5781 5782 5783 5785 5786 5788 5789 5790 5792 5793 5795 5796 5797 5798 5798 5799 5800 5801 5802 5802 5803 5803 5804 5804 5804 5804 5803 5803 5803 5803 5803 5803 5802 5802 5801 5801 5800 5799 5799 5798 5797 5796 5795 5794 5792 5790 5789 5787 5785 5783 5781 5779 5777 5775 5773 5771 5768 5766 5765 5762 5759 5755 5753 5751 5751 5748 5744 5744 5741 5735 5731 5727 5722 5718 5714 5713 5711 5709 5707 5703 5700 5697 5693 5690 5687
5781 5782 5784 5785 5787 5788 5789 5790 5792 5793 5794 5795 5796 5798 5799 5799 5800 5800 5801 5802 5802 5803 5804 5804 5805 5805 5805 5805 5805 5805 5804 5804 5804 5804 5804 5803 5802 5802 5801 5800 5799 5799 5798 5797 5796 5794 5793 5791 5789 5787 5785 5783 5781 5779 5776 5774 5772 5770 5768 5765 5762 5760 5759 5756 5753 5750 5747 5747 5744 5740 5740 5736 5729 5726 5721 5717 5713 5709 5706 5704 5702 5700 5696 5693 5691 5687 5684 5681
5786 5787 5788 5789 5791 5792 5793 5794 5795 5796 5797 5798 5799 5800 5801 5802 5802 5803 5803 5804 5805 5805 5806 5806 5806 5806 5806 5806 5806 5806 5805 5804 5805 5805 5805 5804 5803 5803 5802 5801 5800 5799 5798 5796 5794 5793 5791 5789 5787 5785 5783 5781 5779 5776 5774 5771 5769 5767 5765 5762 5760 5757 5756 5753 5749 5747 5743 5742 5741 5737 5737 5732 5724 5721 5716 5711 5707 5703 5700 5698 5695 5692 5689 5686 5684 5682 5679 5676
5791 5792 5793 5794 5795 5796 5797 5798 5799 5800 5800 5801 5802 5803 5804 5804 5805 5805 5806 5807 5807 5808 5808 5808 5808 5808 5807 5807 5807 5807 5806 5806 5807 5807 5806 5805 5804 5803 5802 5801 5800 5798 5796 5795 5793 5791 5789 5787 5785 5783 5781 5779 5777 5774 5772 5769 5766 5764 5762 5759 5757 5754 5753 5751 5747 5743 5738 5736 5735 5733 5733 5727 5719 5715 5711 5704 5698 5697 5696 5692 5689 5687 5682 5680 5677 5675 5674 5671
5795 5796 5797 5798 5799 5800 5801 5802 5802 5803 5804 5805 5805 5805 5805 5806 5807 5808 5809 5809 5809 5809 5809 5809 5809 5809 5809 5809 5809 5808 5808 5808 5808 5807 5806 5805 5804 5803 5802 5800 5799 5797 5795 5793 5791 5789 5787 5785 5783 5781 5779 5776 5774 5772 5770 5767 5763 5761 5759 5756 5753 5749 5747 5746 5744 5740 5733 5728 5726 5728 5728 5722 5715 5711 5705 5698 5692 5691 5691 5687 5683 5679 5675 5672 5670 5668 5667 5665
5799 5800 5801 5802 5803 5804 5804 5805 5805 5807 5808 5808 5807 5808 5808 5809 5810 5811 5811 5811 5811 5811 5811 5811 5811 5810 5810 5810 5810 5810 5810 5809 5808 5807 5806 5805 5804 5803 5801 5799 5797 5795 5793 5791 5789 5787 5785 5783 5781 5779 5776 5774 5772 5769 5767 5765 5761 5758 5755 5752 5749 5746 5741 5738 5737 5735 5731 5723 5718 5721 5723 5721 5714 5706 5698 5693 5689 5686 5683 5680 5676 5671 5666 5664 5663 5661 5660 5658
5803 5804 5805 5806 5806 5807 5808 5809 5810 5811 5811 5810 5810 5810 5811 5812 5812 5813 5813 5813 5813 5813 5813 5813 5812 5812 5812 5812 5811 5811 5810 5809 5808 5807 5806 5805 5803 5802 5800 5798 5796 5794 5792 5790 5787 5785 5783 5781 5779 5776 5774 5771 5769 5767 5764 5762 5759 5755 5752 5749 5745 5742 5738 5734 5730 5728 5727 5720 5713 5710 5712 5714 5712 5701 5692 5688 5684 5681 5677 5673 5669 5664 5659 5657 5656 5655 5653 5651
5807 5808 5809 5810 5810 5811 5812 5813 5813 5813 5813 5813 5813 5814 5814 5815 5815 5816 5816 5816 5815 5815 5815 5814 5814 5813 5813 5813 5812 5811 5810 5809 5808 5807 5805 5804 5802 5800 5798 5796 5794 5792 5790 5787 5785 5783 5781 5778 5776 5774 5771 5768 5766 5763 5760 5758 5755 5751 5748 5745 5741 5737 5733 5730 5726 5723 5720 5715 5709 5705 5702 5704 5703 5696 5691 5685 5679 5677 5673 5669 5665 5660 5655 5652 5650 5648 5646 5644
5811 5812 5813 5814 5814 5815 5816 5816 5816 5816 5816 5816 5816 5817 5817 5818 5818 5818 5818 5818 5817 5816 5816 5815 5815 5814 5814 5813 5812 5811 5810 5809 5807 5806 5804 5803 5801 5799 5797 5795 5792 5790 5788 5785 5783 5780 5778 5776 5774 5771 5768 5766 5763 5760 5757 5753 5751 5747 5744 5740 5737 5734 5730 5727 5723 5719 5717 5712 5707 5703 5697 5696 5694 5688 5686 5682 5675 5673 5670 5667 5664 5658 5652 5649 5646 5644 5641 5639
5815 5816 5817 5817 5818 5818 5818 5818 5819 5818 5818 5819 5819 5819 5820 5820 5820 5819 5819 5819 5818 5817 5817 5816 5815 5815 5814 5813 5812 5811 5809 5808 5806 5805 5803 5801 5799 5797 5795 5793 5791 5788 5785 5783 5781 5779 5776 5774 5771 5769 5765 5762 5759 5756 5752 5749 5747 5743 5740 5737 5734 5731 5727 5724 5721 5717 5714 5710 5705 5700 5693 5690 5688 5683 5680 5677 5672 5669 5666 5663 5660 5655 5650 5645 5641 5639 5637 5635
5819 5819 5820 5820 5820 5820 5820 5821 5821 5821 5821 5821 5821 5821 5821 5821 5820 5820 5820 5819 5818 5818 5817 5816 5815 5815 5814 5812 5811 5810 5808 5807 5805 5804 5802 5800 5798 5796 5794 5792 5790 5787 5784 5781 5779 5776 5774 5771 5769 5766 5763 5759 5755 5752 5749 5746 5743 5740 5738 5735 5731 5728 5724 5721 5719 5715 5711 5707 5701 5697 5690 5686 5683 5680 5676 5673 5668 5664 5661 5658 5656 5653 5649 5644 5640 5636 5634 5631
5822 5822 5822 5823 5823 5823 5823 5823 5823 5823 5823 5823 5823 5822 5822 5822 5821 5821 5821 5820 5819 5818 5817 5816 5815 5814 5813 5812 5810 5809 5808 5806 5804 5802 5801 5799 5797 5794 5792 5789 5787 5785 5782 5779 5777 5774 5772 5769 5766 5763 5760 5757 5753 5748 5745 5742 5739 5736 5734 5732 5729 5725 5722 5718 5715 5712 5708 5705 5699 5694 5690 5684 5679 5675 5673 5669 5665 5660 5657 5654 5652 5650 5647 5643 5639 5635 5632 5629
5824 5825 5825 5825 5825 5825 5825 5825 5825 5825 5825 5824 5824 5823 5823 5823 5822 5822 5821 5820 5819 5818 5817 5816 5815 5814 5813 5812 5810 5809 5807 5806 5804 5802 5800 5798 5796 5794 5791 5789 5787 5785 5782 5778 5775 5772 5769 5766 5763 5760 5757 5755 5752 5747 5742 5738 5735 5732 5728 5726 5724 5721 5718 5714 5711 5707 5704 5701 5696 5691 5688 5684 5678 5673 5669 5666 5662 5657 5654 5650 5647 5645 5643 5640 5636 5633 5629 5626
5827 5827 5827 5827 5827 5827 5827 5827 5827 5827 5826 5825 5825 5824 5824 5823 5824 5823 5821 5820 5819 5818 5817 5816 5815 5814 5813 5811 5810 5808 5807 5805 5803 5802 5800 5798 5796 5793 5791 5789 5786 5784 5781 5778 5773 5769 5766 5764 5761 5758 5755 5752 5749 5746 5741 5736 5732 5728 5724 5720 5717 5714 5711 5708 5704 5701 5698 5697 5695 5688 5684 5682 5678 5672 5667 5663 5659 5655 5651 5647 5643 5640 5638 5635 5632 5628 5625 5622
5829 5829 5829 5829 5829 5829 5829 5828 5828 5828 5827 5826 5825 5824 5824 5824 5824 5822 5820 5820 5819 5818 5817 5816 5815 5814 5812 5811 5809 5808 5806 5804 5802 5800 5797 5795 5792 5789 5787 5784 5781 5779 5776 5774 5771 5767 5764 5761 5758 5754 5751 5747 5744 5741 5737 5732 5727 5723 5719 5715 5710 5706 5703 5700 5697 5694 5692 5692 5692 5687 5680 5676 5675 5671 5665 5661 5657 5653 5649 5645 5640 5636 5632 5630 5627 5624 5621 5619
5831 5831 5831 5830 5830 5830 5830 5830 5829 5829 5827 5826 5825 5824 5825 5825 5823 5822 5821 5820 5819 5818 5817 5816 5815 5813 5812 5810 5809 5806 5804 5802 5800 5797 5794 5792 5789 5787 5784 5781 5779 5776 5774 5771 5769 5765 5760 5756 5753 5750 5746 5743 5739 5735 5731 5727 5723 5719 5714 5711 5707 5703 5699 5696 5692 5688 5684 5684 5684 5683 5678 5672 5670 5667 5662 5658 5655 5650 5646 5643 5637 5633 5629 5625 5621 5617 5615 5612
5833 5833 5832 5832 5832 5831 5831 5830 5829 5829 5828 5826 5824 5826 5827 5825 5823 5822 5821 5820 5819 5818 5817 5816 5814 5812 5811 5809 5807 5804 5802 5799 5797 5794 5792 5789 5787 5785 5782 5780 5777 5774 5772 5769 5766 5764 5759 5753 5749 5746 5743 5740 5736 5732 5728 5725 5721 5717 5712 5708 5705 5702 5697 5693 5690 5685 5679 5676 5677 5677 5674 5670 5667 5665 5660 5656 5653 5649 5644 5640 5635 5631 5627 5622 5617 5612 5608 5604
5834 5834 5834 5833 5833 5832 5831 5831 5829 5829 5827 5825 5825 5828 5827 5824 5823 5822 5822 5820 5820 5818 5817 5815 5813 5811 5809 5807 5804 5801 5799 5796 5794 5791 5789 5787 5784 5781 5779 5777 5774 5771 5769 5766 5763 5762 5759 5753 5747 5744 5741 5737 5734 5729 5725 5722 5718 5714 5710 5707 5703 5699 5694 5688 5685 5682 5677 5671 5670 5670 5667 5664 5663 5662 5658 5653 5649 5645 5641 5636 5631 5626 5622 5617 5612 5608 5603 5598
5836 5835 5835 5834 5833 5832 5832 5831 5830 5829 5826 5825 5828 5829 5826 5824 5824 5823 5822 5821 5819 5818 5816 5814 5812 5811 5808 5805 5802 5799 5796 5794 5792 5789 5787 5784 5782 5779 5776 5773 5771 5768 5765 5763 5760 5758 5757 5753 5747 5742 5738 5735 5732 5727 5723 5719 5714 5710 5706 5703 5699 5696 5692 5685 5677 5674 5671 5665 5664 5666 5661 5656 5655 5653 5649 5646 5641 5638 5634 5629 5624 5620 5616 5611 5606 5601 5597 5592
5837 5836 5835 5834 5834 5833 5832 5831 5831 5828 5825 5827 5830 5829 5826 5825 5824 5823 5822 5820 5819 5817 5815 5813 5811 5808 5805 5803 5800 5797 5795 5792 5790 5787 5785 5782 5780 5777 5774 5771 5769 5767 5764 5761 5758 5755 5754 5751 5746 5741 5736 5733 5729 5726 5721 5716 5712 5707 5702 5698 5694 5690 5687 5683 5674 5666 5663 5657 5654 5658 5656 5651 5651 5646 5638 5635 5632 5628 5625 5620 5616 5612 5608 5604 5599 5595 5590 5585
5837 5836 5836 5835 5834 5833 5832 5831 5829 5827 5827 5831 5831 5828 5827 5826 5824 5823 5821 5819 5817 5815 5813 5811 5808 5806 5803 5801 5798 5795 5793 5790 5788 5785 5783 5780 5778 5775 5773 5770 5767 5765 5762 5759 5756 5753 5750 5747 5744 5739 5734 5730 5727 5724 5719 5714 5710 5705 5700 5694 5691 5687 5681 5678 5673 5665 5659 5652 5646 5648 5647 5646 5649 5643 5631 5627 5624 5620 5616 5611 5608 5604 5600 5596 5592 5588 5584 5579
5837 5837 5837 5836 5834 5834 5833 5830 5828 5829 5832 5833 5830 5828 5827 5825 5823 5822 5820 5818 5816 5814 5811 5809 5806 5803 5801 5799 5796 5794 5791 5789 5786 5784 5781 5779 5777 5774 5772 5769 5766 5763 5760 5757 5754 5751 5747 5743 5740 5737 5734 5729 5725 5720 5714 5709 5706 5702 5697 5691 5686 5683 5677 5672 5670 5665 5658 5649 5642 5640 5636 5637 5646 5640 5627 5622 5618 5614 5609 5603 5599 5596 5592 5588 5584 5580 5575 5570
5838 5838 5838 5836 5835 5834 5832 5830 5831 5833 5834 5832 5829 5828 5826 5825 5823 5821 5819 5817 5815 5812 5810 5807 5805 5802 5800 5797 5795 5792 5790 5788 5785 5783 5781 5778 5776 5773 5770 5767 5765 5761 5758 5754 5751 5748 5745 5740 5736 5732 5731 5727 5723 5717 5710 5705 5701 5697 5693 5689 5683 5679 5672 5664 5662 5662 5657 5647 5640 5635 5627 5629 5640 5634 5621 5617 5612 5606 5602 5595 5589 5587 5583 5580 5576 5571 5567 5562
5839 5840 5839 5837 5836 5835 5832 5832 5835 5834 5832 5831 5829 5828 5826 5824 5822 5820 5818 5816 5813 5811 5808 5806 5803 5801 5799 5796 5794 5792 5789 5787 5784 5782 5779 5777 5774 5771 5768 5765 5763 5759 5756 5752 5748 5745 5741 5737 5732 5728 5726 5723 5719 5715 5708 5702 5699 5695 5690 5686 5680 5674 5667 5659 5652 5651 5650 5644 5638 5631 5620 5622 5632 5626 5614 5609 5603 5597 5594 5587 5581 5578 5576 5572 5566 5563 5560 5555
5841 5841 5839 5838 5838 5835 5833 5834 5835 5833 5832 5831 5829 5827 5825 5823 5821 5819 5816 5814 5811 5809 5807 5805 5803 5800 5798 5796 5793 5791 5788 5786 5783 5781 5778 5775 5772 5769 5766 5763 5760 5757 5753 5749 5744 5740 5736 5732 5727 5723 5722 5722 5719 5714 5706 5699 5695 5692 5688 5682 5676 5670 5663 5656 5649 5643 5640 5637 5633 5622 5612 5614 5623 5618 5606 5599 5594 5591 5587 5580 5575 5571 5567 5563 5558 5554 5550 5544
5842 5841 5840 5839 5838 5835 5834 5835 5835 5833 5831 5830 5827 5826 5824 5822 5820 5817 5815 5813 5810 5808 5806 5804 5802 5799 5797 5795 5792 5790 5787 5785 5782 5779 5776 5773 5769 5766 5764 5760 5757 5753 5750 5745 5741 5736 5732 5727 5721 5715 5712 5712 5711 5707 5700 5694 5690 5686 5683 5679 5672 5664 5657 5651 5647 5639 5633 5632 5627 5614 5603 5605 5611 5606 5597 5590 5586 5583 5578 5571 5567 5562 5557 5553 5548 5543 5539 5533
5842 5841 5841 5839 5838 5836 5835 5836 5834 5832 5831 5829 5827 5825 5823 5820 5818 5816 5814 5812 5810 5808 5806 5803 5801 5798 5796 5793 5791 5789 5786 5783 5780 5777 5774 5771 5767 5764 5761 5757 5754 5750 5746 5742 5738 5734 5730 5725 5718 5711 5705 5701 5698 5694 5689 5686 5685 5683 5681 5676 5670 5662 5653 5646 5641 5634 5625 5623 5620 5610 5598 5595 5595 5591 5585 5580 5576 5571 5565 5560 5558 5553 5547 5542 5537 5532 5528 5523
5842 5842 5841 5839 5838 5837 5836 5835 5833 5832 5830 5828 5826 5824 5821 5819 5817 5815 5813 5811 5809 5807 5805 5802 5800 5797 5795 5793 5790 5787 5785 5782 5778 5775 5772 5768 5765 5762 5758 5754 5751 5747 5743 5739 5735 5732 5728 5724 5718 5711 5705 5701 5696 5691 5685 5680 5677 5675 5673 5670 5665 5658 5649 5641 5634 5628 5620 5612 5608 5605 5596 5585 5579 5576 5572 5567 5563 5558 5552 5547 5545 5541 5536 5530 5525 5521 5518 5514
5843 5842 5841 5840 5839 5837 5836 5834 5833 5831 5829 5827 5825 5822 5820 5818 5816 5814 5813 5811 5809 5807 5804 5802 5800 5797 5795 5792 5789 5786 5783 5779 5776 5773 5770 5766 5762 5759 5755 5752 5748 5743 5739 5735 5731 5728 5724 5721 5717 5710 5705 5701 5695 5688 5683 5676 5671 5668 5663 5659 5655 5650 5643 5636 5628 5622 5616 5603 5596 5596 5591 5578 5569 5565 5560 5554 5550 5547 5542 5536 5533 5529 5523 5518 5514 5511 5508 5505
5843 5842 5841 5840 5838 5837 5835 5834 5832 5830 5828 5825 5823 5821 5819 5817 5815 5814 5812 5810 5808 5806 5804 5802 5799 5797 5794 5791 5788 5785 5782 5779 5776 5772 5768 5764 5760 5757 5753 5749 5745 5740 5735 5730 5726 5723 5719 5716 5713 5708 5703 5699 5692 5683 5678 5672 5667 5663 5656 5649 5644 5639 5634 5629 5623 5618 5612 5599 5588 5584 5580 5570 5560 5554 5551 5545 5540 5537 5532 5527 5522 5517 5512 5508 5504 5500 5497 5494
5843 5842 5841 5840 5838 5837 5835 5833 5831 5829 5826 5824 5822 5821 5819 5817 5815 5814 5812 5810 5808 5805 5803 5801 5798 5796 5793 5790 5787 5784 5781 5778 5775 5771 5766 5761 5757 5754 5750 5745 5741 5736 5732 5726 5722 5718 5714 5710 5707 5703 5700 5698 5690 5681 5673 5667 5662 5657 5651 5643 5636 5631 5626 5621 5615 5610 5604 5593 5582 5575 5569 5563 5554 5546 5542 5539 5534 5529 5524 5519 5514 5508 5502 5496 5492 5488 5484 5480
5844 5842 5841 5839 5838 5836 5834 5832 5830 5827 5825 5823 5822 5820 5819 5817 5815 5813 5811 5809 5807 5805 5803 5800 5797 5795 5791 5788 5785 5782 5778 5774 5770 5767 5763 5758 5753 5749 5746 5741 5737 5733 5728 5722 5717 5712 5708 5705 5701 5696 5694 5693 5688 5679 5671 5664 5657 5650 5644 5640 5634 5626 5620 5613 5605 5598 5593 5585 5576 5568 5561 5556 5549 5542 5537 5532 5527 5522 5517 5511 5505 5498 5490 5484 5478 5474 5470 5465
5844 5842 5841 5839 5837 5835 5833 5831 5829 5826 5825 5823 5822 5820 5818 5817 5815 5813 5811 5809 5807 5804 5802 5799 5796 5793 5790 5787 5783 5779 5775 5771 5767 5762 5758 5753 5749 5745 5741 5737 5733 5729 5724 5718 5713 5707 5702 5698 5695 5689 5686 5685 5682 5675 5668 5662 5656 5647 5640 5635 5628 5618 5608 5601 5593 5585 5579 5572 5564 5558 5551 5545 5539 5534 5527 5521 5516 5511 5506 5501 5494 5486 5478 5471 5465 5460 5455 5450
5844 5842 5840 5838 5836 5834 5832 5830 5828 5826 5825 5823 5822 5820 5818 5816 5815 5813 5810 5808 5806 5803 5801 5798 5795 5792 5788 5785 5781 5777 5773 5769 5764 5760 5756 5751 5746 5741 5737 5733 5728 5724 5719 5713 5709 5704 5698 5692 5687 5682 5677 5676 5674 5667 5662 5657 5650 5640 5632 5623 5615 5607 5599 5593 5586 5579 5570 5562 5554 5547 5540 5534 5527 5520 5513 5507 5503 5498 5493 5489 5482 5472 5463 5456 5451 5446 5441 5435